Location: Poughquag
(41.6090°N, 73.6820°W)
Time: 06:08:58
(UTC-05:00)

STRAND 1 - Pass Details

Date: 05 December 2023
Orbit: 766 x 778 km, 98.4° (Epoch: 24 February)

Event Time Altitude Azimuth Distance (km) Brightness Sun altitude
Rises 04:12:01 0° 119° (ESE) 3,237 ? -31.7°
Reaches altitude 10° 04:15:07 10° 99° (E) 2,313 ? -31.2°
Maximum altitude 04:18:13 17° 62° (ENE) 1,900 ? -30.6°
Drops below altitude 10° 04:21:19 10° 24° (NNE) 2,317 ? -30.0°
Sets 04:24:25 0° 4° (N) 3,247 ? -29.4°
